TIME,DELAY(SENSOR),PRES,OXYGEN,RAWTEMP,T(OPTODE),TCPHASE,FLUOR,BETA(BETA700),BETA(BETA412),BETA(BETA440),CDOM,C(CSC),ED(ED412.20),ED(ED444.00),ED(ED489.60),ED(ED554.30),LU(LU412.10),LU(LU443.90),LU(LU489.70),LU(LU554.70),COMP,TILTX,TILTY,CHECK
1341458754,5806,901.6900024414062000,39.9724502563476560,560.7661743164062000,4.4621491432189940,55.5242385864257800,54,102,103,79,83,15563,0,0,0,0,2147123940,2147772891,2147571776,2147573531,2370,3,13,10718
1341462350,5811,972.8800048828125000,42.8236999511718750,567.5645751953125000,4.2512149810791020,55.1727485656738300,56,100,102,78,83,15562,0,0,0,0,2147121051,2147778176,2147570002,2147571675,2504,3,13,44359
1341465950,5811,981.0399780273438000,44.4871482849121100,570.3574218750000000,4.1644539833068850,54.9680709838867200,55,100,101,78,82,15561,0,0,0,0,2147121517,2147778898,2147570596,2147573522,1799,3,13,65527
1341469550,5810,995.6799926757812000,44.4547691345214840,570.8696899414062000,4.1485328674316410,54.9751396179199200,56,111,101,78,82,15563,0,0,0,0,2147125147,2147777280,2147571062,2147572653,452,3,13,53927
1341473150,5808,1004.0499877929688000,44.1702308654785160,571.3162231445312000,4.1346511840820310,55.0235404968261700,55,100,101,78,83,15561,0,0,0,0,2147123291,2147774153,2147572827,2147574390,173,3,13,52417
1341476750,5809,1003.6099853515625000,43.4789314270019500,570.3527221679688000,4.1645998954772950,55.1114387512207000,56,100,101,78,85,15561,0,0,0,0,2147125458,2147777179,2147574811,2147572416,3484,3,13,24210
1341480350,5810,1008.1099853515625000,43.7648811340332000,570.6979980468750000,4.1538681983947750,55.0775108337402340,56,102,101,78,83,15559,0,0,0,0,2147124498,2147768978,2147570861,2147573659,351,3,13,10907
1341483950,5808,1006.5200195312500000,43.4538612365722660,570.8026733398438000,4.1506161689758300,55.1148986816406250,53,99,102,79,83,15560,0,0,0,0,2147121965,2147778057,2147573275,2147574080,386,3,13,16657
1341487550,5806,1004.4899902343750000,43.4769897460937500,572.3472290039062000,4.1025981903076170,55.1327018737793000,55,99,101,78,83,15560,0,0,0,0,2147120283,2147771117,2147573156,2147572827,679,3,13,60971
1341491150,5811,1000.2000122070312000,43.3795814514160160,572.8433227539062000,4.0871720314025880,55.1475791931152340,55,99,102,78,85,15553,0,0,0,0,2147121389,2147775597,2147575250,2147572297,3572,3,13,42491
1341494750,5809,1001.2899780273438000,43.5873794555664060,574.0136718750000000,4.0507659912109375,55.1358184814453100,55,99,101,78,84,15551,0,0,0,0,2147122139,2147777069,2147574628,2147572882,3477,3,13,4569
1341498350,5811,1005.9400024414062000,44.1552581787109400,573.9298706054688000,4.0533699989318850,55.0527305603027340,54,98,102,78,83,15550,0,0,0,0,2147123593,2147774601,2147568859,2147572699,16,3,13,14835
1341501950,5807,1009.5499877929688000,43.9510002136230500,573.3762207031250000,4.0705947875976560,55.0762596130371100,56,98,103,79,83,15551,0,0,0,0,2147120402,2147773083,2147570203,2147574966,257,3,13,25819
1341505550,5811,1007.1900024414062000,43.4628181457519500,572.9213256835938000,4.0847430229187010,55.1402702331543000,55,97,101,78,83,15550,0,0,0,0,2147118619,2147781677,2147571830,2147570971,103,3,13,11073
1341509150,5811,1013.3499755859375000,43.3133888244628900,571.9719238281250000,4.1142649650573730,55.1514396667480500,55,99,101,78,83,15551,0,0,0,0,2147120210,2147773494,2147571245,2147574985,3097,3,13,2538
1341512750,5806,1013.2000122070312000,43.3555297851562500,572.8176269531250000,4.0879712104797360,55.1513099670410160,55,99,100,78,84,15548,0,0,0,0,2147125074,2147776356,2147571044,2147570267,403,3,13,9962
1341516350,5811,1018.0399780273438000,43.5767898559570300,571.8673706054688000,4.1175160408020020,55.1083488464355500,55,99,101,78,84,15546,0,0,0,0,2147120731,2147777362,2147570011,2147570770,3437,3,13,612
1341519950,5809,1019.4699707031250000,43.4113082885742200,570.6510009765625000,4.1553292274475100,55.1203804016113300,55,101,101,77,84,15545,0,0,0,0,2147123236,2147778075,2147573686,2147573092,43,3,13,55832
1341523550,5807,1018.8499755859375000,43.3004417419433600,570.2385864257812000,4.1681442260742190,55.1357116699218750,56,102,101,78,82,15546,0,0,0,0,2147121764,2147781997,2147569307,2147576612,247,3,13,10917
1341527150,5807,1016.9199829101562000,43.1737289428710940,570.6898803710938000,4.1541190147399900,55.1577491760253900,54,101,102,79,82,15546,0,0,0,0,2147121124,2147773595,2147573540,2147572800,223,3,13,17511
1341530750,5809,1014.2700195312500000,42.8179092407226560,572.5009155273438000,4.0978159904479980,55.2299003601074200,55,99,100,78,84,15545,0,0,0,0,2147119990,2147775707,2147569636,2147572653,471,3,13,63186
1341534350,5810,1020.9099731445312000,43.4274101257324200,572.2697143554688000,4.1050071716308590,55.1355209350585940,55,102,102,79,84,15546,0,0,0,0,2147123145,2147771017,2147573595,2147572269,216,3,13,7106
1341537950,5812,1019.4000244140625000,43.4750404357910160,571.9232788085938000,4.1157779693603520,55.1236991882324200,55,99,102,78,82,15548,0,0,0,0,2147123931,2147772525,2147572836,2147570194,3468,3,13,50100
1341541550,5811,1014.9799804687500000,42.8620414733886700,571.8624267578125000,4.1176719665527340,55.2135200500488300,56,102,101,79,83,15543,0,0,0,0,2147119533,2147778505,2147569051,2147571108,112,3,13,4969
1341545150,5811,1009.3699951171875000,42.4794692993164060,572.9714965820312000,4.0831828117370605,55.2806396484375000,54,104,103,79,83,15548,0,0,0,0,2147119277,2147776192,2147570157,2147570413,101,3,13,29185
1341548750,5811,1013.2899780273438000,43.2483100891113300,573.4691162109375000,4.0677070617675780,55.1780586242675800,54,99,102,79,83,15544,0,0,0,0,2147124406,2147776886,2147571766,2147571712,3459,3,13,16028
1341552350,5808,1014.9199829101562000,42.9471817016601560,573.8701171875000000,4.0552310943603520,55.2260093688964840,55,101,100,79,85,15543,0,0,0,0,2147121563,2147776502,2147574372,2147572781,175,3,13,30348
1341555950,5810,1014.8099975585938000,42.3069190979003900,572.2020874023438000,4.1071071624755860,55.2955818176269500,55,99,101,79,83,15541,0,0,0,0,2147121545,2147774683,2147568484,2147575497,2784,3,13,3085
1341559550,5809,1017.4600219726562000,42.4220581054687500,572.6256713867188000,4.0939350128173830,55.2853507995605500,55,100,101,77,81,15541,0,0,0,0,2147122377,2147774372,2147570861,2147572059,228,3,13,56857
1341563150,5808,1014.2600097656250000,43.2371406555175800,571.8737792968750000,4.1173171997070310,55.1620292663574200,55,100,102,79,84,15537,0,0,0,0,2147122633,2147780150,2147569472,2147574235,777,3,13,27323
1341566750,5812,1017.1400146484375000,42.9550399780273440,571.8328247070312000,4.1185932159423830,55.1997795104980500,54,102,103,78,83,15538,0,0,0,0,2147124315,2147770413,2147576676,2147572205,17,3,13,33884
1341570350,5811,1022.4899902343750000,42.9140510559082000,571.9729003906250000,4.1142349243164060,55.2058715820312500,55,99,101,79,84,15540,0,0,0,0,2147123410,2147776283,2147571008,2147575030,3216,3,13,218
1341573950,5811,1018.0599975585938000,43.3926811218261700,573.0092773437500000,4.0820059776306150,55.1481781005859400,55,100,103,79,83,15535,0,0,0,0,2147122194,2147776274,2147575945,2147574372,3394,3,13,48802
1341577550,5809,1017.5399780273438000,43.4803886413574200,573.1035766601562000,4.0790748596191410,55.1366004943847660,55,104,100,80,83,15536,0,0,0,0,2147123273,2147773385,2147572772,2147573869,3562,3,13,27841
1341581150,5810,1010.3300170898438000,43.2678184509277340,574.8093261718750000,4.0260109901428220,55.1891517639160160,55,100,100,79,83,15535,0,0,0,0,2147119131,2147779218,2147570980,2147572662,3448,3,13,51123
1341584750,5810,1010.5700073242188000,43.6962890625000000,575.1406860351562000,4.0156989097595215,55.1280097961425800,55,102,101,79,83,15536,0,0,0,0,2147122642,2147775826,2147569600,2147572800,223,3,13,40248
1341588350,5809,1016.9099731445312000,43.6931495666503900,575.1337890625000000,4.0159130096435550,55.1319313049316400,54,100,101,78,85,15535,0,0,0,0,2147121417,2147778157,2147568155,2147575808,3490,3,13,30663
1341591950,5807,1024.7500000000000000,43.2276992797851560,571.9202880859375000,4.1158709526062010,55.1610298156738300,55,100,102,81,83,15524,0,0,0,0,2147122276,2147770386,2147572379,2147571108,225,3,13,42624
1341595550,5810,1018.9500122070312000,42.3792381286621100,571.4954223632812000,4.1290798187255860,55.2819900512695300,56,102,101,79,83,15524,0,0,0,0,2147124406,2147771675,2147572708,2147571538,3535,3,13,62809
1341599150,5810,1015.6500244140625000,42.5859718322753900,573.2108764648438000,4.0757369995117190,55.2728004455566400,55,99,101,78,84,15517,0,0,0,0,2147123876,2147771264,2147576201,2147574573,83,3,13,54102
1341602756,5811,1024.4799804687500000,43.5703086853027340,572.4578247070312000,4.0991568565368650,55.1206703186035160,55,99,102,78,83,15517,0,0,0,0,2147121499,2147774436,2147578358,2147574985,3212,3,13,48086
